sat.trackr.live / text

‹ back to catalog

STARLINK-2519

NORAD 48305 · 2021-036AF

PAYLOAD ACTIVE UNKNOWN

§ Identity

Operator
Country
US
Launch date
2021-04-29
Launch site
AFETR
Launch vehicle
Mass (kg)
RCS (m²)

Purposes: comms

External: N2YO · Heavens-Above · Gunter

§ Orbital elements

Epoch: 2026-09-20T04:00:03.000096Z

Period
93.61 min
Inclination
53.1571°
Eccentricity
0.0001233
Mean motion
15.38242036 rev/d
Perigee alt
450.5 km
Apogee alt
452.1 km
Semi-major
6,829.4 km
B*
1.1126e-3
RAAN
274.3289°
Arg perigee
91.2471°
Mean anomaly
205.7967°
Rev number
585

§ Raw data

STARLINK-25191 48305U 21036AF  26263.16670139  .00042384  00000+0  11126-2 0  99972 48305  53.1571 274.3289 0001233  91.2471 205.7967 15.38242036  5850

JSON: /api/v1/satellites/48305 · /tle

For live sub-satellite position, see the globe view (requires WebGL).

§ Visibility from observer

Set your observer location to see the next 7 days of passes ≥ 10°. The values pass through the URL so the page stays shareable.

No JS? Fill the form by hand. The geolocation button needs JavaScript.